Theta_e
307 307 308 308 309 309 309 309 309 309 309 310 309 309 306 302 301 310 314 315 317 316 315 325 333 330 332 336 332 327 328 330 331 332 332 332 332 332 332 332 332 332 331 331 331
306 307 307 307 307 308 308 308 308 308 309 309 306 302 304 303 310 312 311 313 316 315 316 318 323 327 330 331 332 330 330 330 331 332 333 333 333 333 333 333 333 333 333 332 332
306 307 307 307 307 307 307 308 308 308 308 309 308 303 301 305 314 314 314 313 313 315 314 318 322 328 327 327 329 333 333 331 332 333 333 333 333 333 334 334 333 333 333 333 333
306 306 307 307 307 307 307 307 308 308 308 308 308 308 303 310 314 315 311 314 313 314 313 314 316 319 329 329 326 327 332 332 332 333 333 333 333 333 333 334 333 334 334 333 333
304 305 305 306 307 306 304 304 306 307 304 303 307 309 309 310 312 313 313 314 314 313 313 316 317 318 320 325 328 328 327 328 331 332 332 332 333 333 333 333 333 333 333 334 333
305 305 305 305 305 305 305 304 303 303 303 305 308 308 310 310 309 311 313 314 314 316 318 319 319 320 322 323 325 328 327 328 329 329 329 330 330 330 331 332 333 333 334 334 334
305 305 305 304 304 304 304 304 304 304 304 307 308 308 310 309 308 310 310 312 314 315 318 319 323 325 325 324 324 326 329 330 330 329 331 331 332 332 331 331 331 333 333 333 333
304 302 301 301 301 301 301 301 301 302 305 307 309 309 310 308 309 309 309 309 309 311 313 314 317 318 323 325 325 326 327 330 329 330 330 331 333 332 331 331 332 331 332 333 333
305 305 304 303 303 302 301 300 300 303 305 307 311 310 312 310 310 310 309 309 309 310 311 313 315 318 319 323 326 327 329 328 329 328 329 331 332 332 332 331 332 332 331 331 331
304 304 304 304 303 303 302 302 307 308 309 311 311 312 313 312 310 310 311 311 310 310 312 314 315 316 318 320 328 327 327 328 329 329 329 330 331 332 332 332 333 332 331 330 330
304 305 305 305 305 303 305 309 309 311 312 315 314 314 312 310 309 308 308 309 312 313 313 313 316 317 317 318 320 325 327 327 328 328 330 330 331 331 332 332 332 333 332 331 332
304 304 305 305 302 302 306 310 309 308 308 308 308 308 307 306 307 308 308 308 309 314 315 314 317 318 317 317 317 319 323 325 326 326 328 329 330 332 332 332 332 333 331 332 332
303 303 304 302 302 307 309 308 307 307 309 308 308 308 308 308 308 308 308 308 307 310 313 314 316 316 318 317 317 319 320 323 324 324 326 327 329 332 331 332 332 331 332 332 332
302 302 301 304 307 307 308 307 306 307 309 308 308 309 309 309 309 309 310 309 308 307 310 314 315 314 317 318 318 321 319 319 321 323 326 324 330 333 332 332 333 332 332 331 331
302 302 303 305 307 308 306 306 307 307 312 310 310 310 312 311 313 314 313 310 308 308 308 309 314 315 315 318 319 320 318 320 321 323 325 324 328 329 330 331 329 330 330 331 332
301 302 304 307 307 307 306 306 307 310 313 311 311 311 312 311 313 313 313 313 312 310 309 308 310 312 316 315 317 319 319 320 321 323 327 328 328 328 329 330 329 330 330 330 333
301 303 304 306 307 306 306 307 311 313 308 309 308 308 308 309 312 311 311 311 314 315 313 312 310 310 311 315 316 317 323 324 325 325 327 326 327 328 329 328 328 329 330 331 333
302 304 307 308 307 307 307 310 313 306 307 306 306 306 305 307 307 307 309 308 309 313 317 318 318 310 311 313 317 318 322 324 324 325 325 323 327 328 329 328 329 332 331 333 333
304 310 309 308 307 307 309 315 309 308 306 306 309 308 307 308 308 308 310 310 310 312 318 317 317 315 311 313 316 318 319 321 325 323 324 325 327 328 328 330 331 330 333 334 340
305 309 310 308 308 308 310 311 308 307 306 307 309 311 310 309 309 310 310 310 311 309 313 312 316 315 317 312 314 318 319 321 324 326 328 326 328 330 333 333 332 333 332 334 341
308 312 309 308 308 311 313 311 308 306 306 308 309 308 311 311 311 309 308 309 311 310 310 312 315 318 318 314 314 318 319 320 325 324 327 329 328 331 335 333 330 332 331 334 341
309 313 308 307 312 313 312 307 306 308 307 306 306 309 310 311 311 312 309 313 311 311 311 313 318 320 318 318 315 319 319 321 324 328 326 326 328 331 329 328 329 331 330 337 340
311 310 310 308 312 313 308 308 308 308 310 308 307 307 310 311 312 313 313 311 311 311 314 315 319 320 319 320 321 320 319 322 325 329 328 326 329 330 328 328 331 333 331 338 340
311 314 311 309 309 309 310 308 308 309 309 308 307 308 311 312 309 310 311 313 311 311 312 313 316 318 323 324 325 325 321 321 324 327 326 328 328 328 328 332 334 337 338 340 339
311 311 310 312 310 308 308 308 309 309 308 307 308 309 309 309 309 310 311 312 311 313 313 314 318 316 315 317 321 323 325 321 323 326 327 328 328 328 332 334 338 340 341 340 339
312 308 307 308 308 309 309 309 310 308 308 308 310 309 308 310 311 312 310 310 310 313 313 313 319 319 318 314 318 321 322 323 321 324 327 329 329 332 334 333 337 338 339 339 339
307 307 307 307 309 311 310 308 308 308 308 308 308 308 310 310 310 310 310 310 310 311 312 314 319 320 320 316 317 321 323 325 324 324 327 330 331 330 329 327 335 338 338 338 338
Wind_Speed
17 18 19 19 19 18 18 18 18 18 18 19 21 21 21 21 22 17 16 16 9 22 12 6 12 18 19 18 19 19 15 16 22 23 21 18 16 14 20 3 13 10 11 13 16
18 18 18 19 19 19 19 18 18 17 17 19 20 20 21 23 24 24 27 22 23 17 14 19 16 15 15 17 18 17 16 26 21 22 21 20 17 19 15 6 12 18 17 18 18
19 19 19 19 20 21 21 21 20 19 18 18 20 21 19 22 13 11 11 30 31 29 23 20 21 17 20 21 22 22 23 24 23 23 23 23 22 23 22 18 18 19 15 15 14
21 20 20 21 21 21 22 22 22 22 20 19 18 19 18 14 8 6 12 2 28 24 19 20 18 22 24 25 24 26 30 27 28 26 26 26 25 28 25 24 17 22 17 16 12
22 23 23 23 23 23 24 23 22 22 22 22 20 17 13 11 13 13 5 2 8 14 24 22 23 23 27 25 26 29 29 29 29 27 28 28 29 28 28 25 24 24 20 21 15
22 23 24 25 25 26 27 26 26 24 24 22 18 15 14 23 12 18 16 16 13 17 23 23 23 23 24 28 29 27 29 30 30 29 28 28 29 28 26 25 24 23 21 22 22
22 23 25 26 28 29 30 30 29 28 27 22 18 14 17 23 19 20 16 15 20 21 18 22 25 24 25 30 28 30 31 30 30 30 30 26 32 29 25 25 24 27 22 22 21
21 22 23 24 26 28 30 30 30 29 25 20 15 14 12 17 16 23 24 26 28 26 25 23 24 22 23 27 31 32 32 30 28 30 34 27 32 25 25 23 24 23 21 20 18
22 23 24 25 27 29 32 35 33 21 19 12 8 13 13 12 17 19 18 24 24 24 26 25 23 19 18 21 21 29 24 33 31 29 29 29 33 26 26 25 25 20 20 18 21
24 25 26 28 30 31 36 34 27 23 13 11 16 12 20 12 13 8 4 6 15 17 19 22 15 19 18 19 24 22 30 30 28 26 28 31 29 27 24 26 24 21 16 15 22
26 27 29 29 32 32 31 17 9 4 12 17 12 13 22 16 7 10 11 12 8 14 20 21 16 24 40 30 29 27 31 33 29 27 28 26 25 28 23 21 22 20 15 17 21
31 31 31 32 33 23 18 9 14 11 16 18 26 30 37 34 27 25 22 18 15 17 18 19 28 38 22 32 31 34 32 30 29 28 24 23 26 26 22 22 20 19 17 16 19
33 36 34 31 24 14 11 16 15 15 16 30 35 30 26 27 26 23 21 22 22 22 20 23 37 22 29 30 30 31 31 28 31 25 27 24 26 25 24 25 20 19 20 15 15
32 37 28 25 11 20 14 17 17 17 9 11 11 8 14 10 18 18 24 23 24 26 22 24 26 32 30 33 30 29 28 29 28 23 20 19 19 25 20 21 20 20 17 16 16
32 34 20 10 12 14 21 21 20 6 6 8 3 5 6 11 4 6 11 16 23 22 20 34 22 27 31 37 29 34 21 27 28 25 21 23 14 29 17 17 16 13 14 16 15
33 26 15 10 9 16 18 16 11 5 5 12 15 12 12 11 15 8 7 6 11 19 20 29 26 28 29 26 32 26 26 29 26 19 19 26 19 29 19 19 17 16 17 17 13
33 17 11 11 11 16 16 9 5 4 10 7 17 12 14 9 16 8 12 12 9 14 19 24 28 31 30 29 29 31 23 17 19 17 21 17 19 23 21 19 18 18 15 14 10
29 15 12 10 15 10 9 2 3 19 21 21 16 19 16 13 14 15 11 13 13 14 12 13 19 28 24 33 27 29 25 16 25 17 19 21 26 20 21 21 19 15 10 12 16
26 14 10 4 7 5 6 3 9 15 17 18 19 15 13 16 7 15 10 17 6 6 3 7 15 27 30 29 28 30 28 31 22 21 19 16 18 30 27 20 14 7 12 14 14
19 16 13 4 5 5 3 9 13 11 14 17 9 4 17 17 7 11 8 3 10 3 7 5 14 23 27 29 33 31 21 25 19 25 24 20 22 14 11 15 12 13 9 11 16
10 5 6 1 5 4 5 7 21 15 13 8 20 15 18 18 20 10 8 8 5 5 8 9 9 18 23 26 28 24 25 23 21 18 16 15 14 12 2 9 6 9 13 12 17
8 5 7 2 4 4 8 20 21 24 13 14 11 8 16 14 13 17 15 9 5 8 11 15 7 16 23 20 21 29 25 25 19 24 17 13 15 5 2 5 5 11 15 19 17
6 8 5 4 4 9 16 20 23 15 19 17 10 12 10 11 10 4 11 5 3 3 2 6 6 11 19 17 20 20 28 24 21 11 19 17 16 7 6 8 10 10 15 19 18
5 4 5 5 3 11 15 18 19 22 13 20 18 13 9 18 13 7 9 8 7 7 3 2 7 15 11 7 15 8 24 31 26 17 19 19 9 6 7 8 5 14 19 18 17
3 4 8 7 10 13 15 16 19 13 12 15 14 19 18 18 18 14 11 18 13 6 2 2 8 18 20 13 15 21 29 29 29 24 22 19 18 13 13 11 13 11 16 17 18
5 7 7 13 11 12 15 13 18 19 20 16 13 20 20 17 15 20 19 17 13 2 0 4 4 15 14 15 10 23 31 26 29 26 27 21 14 11 11 14 15 12 14 16 17
11 9 3 9 7 7 10 14 20 18 10 19 18 18 19 19 18 20 22 22 20 17 16 15 5 8 8 6 7 18 23 22 22 25 26 17 6 18 8 8 11 13 14 15 16
Wind_Direction
357 355 353 350 350 348 345 343 340 339 333 331 332 328 331 330 316 298 251 232 265 235 249 234 232 234 227 231 238 237 253 253 257 262 272 285 314 304 293 138 292 312 307 300 291
355 353 349 347 344 341 339 337 335 330 328 327 327 331 330 331 308 273 251 240 241 235 217 227 229 229 223 238 235 228 242 243 246 269 280 274 264 270 275 262 251 299 268 249 287
354 351 347 344 342 337 335 332 329 327 324 323 325 326 328 331 293 264 233 230 231 229 230 235 244 218 232 233 230 231 242 249 257 255 271 275 296 296 290 267 275 280 279 305 302
350 347 344 342 339 334 331 328 325 322 320 318 317 319 320 313 252 82 43 325 213 215 225 237 246 248 238 235 237 240 235 242 254 261 270 274 278 286 289 294 283 280 292 293 297
347 344 341 339 336 333 331 326 321 317 316 314 313 317 326 238 244 281 293 114 181 208 229 234 230 229 237 239 246 238 245 248 251 258 261 267 272 279 279 284 293 294 288 291 281
349 343 340 337 334 331 328 323 319 315 311 303 302 308 281 269 263 262 251 248 246 234 219 222 234 236 245 239 241 247 244 255 259 257 257 263 270 272 275 284 283 277 271 275 266
346 339 335 332 330 327 325 321 314 311 308 299 290 285 268 256 274 280 291 266 254 249 252 250 237 231 241 247 252 252 259 261 256 261 263 269 265 260 271 268 269 274 275 272 272
345 344 340 335 332 328 324 318 312 308 305 298 275 257 258 262 250 262 262 252 255 256 260 261 274 287 262 253 258 249 253 257 251 255 257 258 263 264 270 276 274 279 280 271 259
342 340 336 331 328 325 322 313 304 295 300 286 257 216 275 269 230 253 249 255 248 243 240 244 252 258 266 248 245 245 248 251 250 248 264 258 267 265 253 256 258 258 268 271 277
340 337 333 330 326 325 322 312 297 286 280 251 245 259 243 274 269 193 281 238 232 246 248 227 230 239 242 237 227 223 235 241 256 248 249 248 254 261 255 257 259 247 256 267 273
338 336 332 328 322 324 326 326 349 223 230 262 280 219 293 294 256 239 276 266 251 243 236 224 218 222 220 221 240 237 240 246 253 252 247 254 261 266 276 274 261 268 266 266 260
342 337 333 325 324 320 309 288 335 310 295 276 271 267 266 272 272 267 270 261 245 241 232 230 219 225 232 228 234 242 251 253 262 265 260 261 257 259 248 252 261 263 240 254 281
342 340 334 329 328 309 277 308 328 306 290 279 261 260 262 245 247 250 241 242 243 249 235 224 237 225 235 234 235 238 238 245 256 265 266 268 269 270 268 270 264 257 270 252 257
342 342 339 338 318 323 301 346 323 339 289 287 212 222 223 247 244 240 237 231 236 238 246 248 243 242 227 237 231 242 233 243 249 251 257 254 269 256 262 264 257 255 253 255 246
339 339 336 334 310 331 330 327 321 314 276 107 135 111 165 200 191 182 206 220 235 241 233 243 247 234 239 238 228 245 244 248 247 251 261 254 259 267 269 268 269 276 265 259 247
338 335 329 9 296 328 330 324 320 242 250 359 358 349 359 340 317 310 203 223 249 239 246 252 252 254 247 243 248 247 240 251 258 257 247 243 242 264 258 263 270 270 261 246 252
337 326 294 310 319 336 334 323 275 286 277 0 323 328 307 284 232 251 294 251 225 241 241 249 244 252 250 253 235 237 236 234 236 235 241 244 241 255 265 266 272 273 266 268 264
333 304 285 273 333 337 6 355 277 3 357 349 341 312 301 299 288 273 266 258 254 221 260 277 269 230 235 239 236 225 232 228 223 226 241 240 252 260 254 258 253 279 227 239 232
331 306 265 11 347 345 301 281 7 340 345 338 340 317 310 326 347 303 271 300 350 358 183 321 287 259 226 244 240 234 221 235 249 240 245 255 243 236 243 245 241 239 233 235 129
320 304 282 15 359 291 284 291 306 351 337 326 339 326 311 313 327 310 307 339 305 324 129 295 288 277 271 218 241 236 228 223 230 232 246 236 240 253 186 224 226 196 222 200 135
294 241 109 358 307 295 283 305 312 321 313 350 305 340 321 336 322 277 273 211 222 293 295 250 222 274 282 239 216 227 227 221 241 225 236 246 264 295 83 171 174 195 195 184 141
298 290 130 334 305 264 284 324 323 319 310 309 324 339 302 291 280 306 306 340 273 281 305 299 278 265 266 271 246 233 226 230 218 218 228 247 237 68 134 229 175 260 178 145 142
294 326 91 242 328 324 323 321 309 340 355 313 321 307 2 317 314 359 334 310 359 325 338 336 261 261 258 267 258 255 224 233 237 237 219 232 250 143 148 208 216 181 147 141 144
287 326 320 344 10 306 316 314 318 328 311 342 322 331 2 298 302 283 309 270 269 245 307 296 258 262 260 309 337 312 240 230 222 207 226 220 192 198 181 189 177 134 126 138 150
279 290 344 302 314 314 301 283 311 320 332 333 324 324 330 329 321 321 331 311 312 81 36 174 277 285 259 247 285 298 286 240 224 198 217 226 226 219 165 173 112 117 139 145 153
328 338 339 301 311 305 305 317 315 333 333 319 327 323 317 311 316 307 312 302 300 296 211 229 261 298 275 246 280 300 285 277 219 201 216 239 176 44 97 112 128 146 155 160 158
1 309 297 294 308 293 310 318 318 321 311 314 309 306 308 310 307 292 282 281 280 274 265 266 289 322 256 231 301 281 243 249 245 209 209 204 194 130 210 98 120 147 158 161 156